[{"OBJECT_NAME":"ISS (ZARYA)","OBJECT_ID":"1998-067A","EPOCH":"2026-09-13T04:12:47.894976","MEAN_MOTION":15.49096932,"ECCENTRICITY":0.00049173,"INCLINATION":51.6307,"RA_OF_ASC_NODE":224.6171,"ARG_OF_PERICENTER":134.673,"MEAN_ANOMALY":225.4659,"EPHEMERIS_TYPE":0,"CLASSIFICATION_TYPE":"U","NORAD_CAT_ID":25544,"ELEMENT_SET_NO":999,"REV_AT_EPOCH":58539,"BSTAR":0.000096694874,"MEAN_MOTION_DOT":0.00004898,"MEAN_MOTION_DDOT":0},{"OBJECT_NAME":"POISK","OBJECT_ID":"2009-060A","EPOCH":"2026-09-13T04:12:47.894976","MEAN_MOTION":15.49096932,"ECCENTRICITY":0.00049173,"INCLINATION":51.6307,"RA_OF_ASC_NODE":224.6171,"ARG_OF_PERICENTER":134.673,"MEAN_ANOMALY":225.4659,"EPHEMERIS_TYPE":0,"CLASSIFICATION_TYPE":"U","NORAD_CAT_ID":36086,"ELEMENT_SET_NO":999,"REV_AT_EPOCH":58610,"BSTAR":0.000096694874,"MEAN_MOTION_DOT":0.00004898,"MEAN_MOTION_DDOT":0},{"OBJECT_NAME":"CSS (TIANHE)","OBJECT_ID":"2021-035A","EPOCH":"2026-09-13T04:13:37.142112","MEAN_MOTION":15.5987581,"ECCENTRICITY":0.00026461,"INCLINATION":41.468,"RA_OF_ASC_NODE":147.8011,"ARG_OF_PERICENTER":275.2341,"MEAN_ANOMALY":84.8195,"EPHEMERIS_TYPE":0,"CLASSIFICATION_TYPE":"U","NORAD_CAT_ID":48274,"ELEMENT_SET_NO":999,"REV_AT_EPOCH":30690,"BSTAR":0.00021565884,"MEAN_MOTION_DOT":0.00017557,"MEAN_MOTION_DDOT":0},{"OBJECT_NAME":"ISS (NAUKA)","OBJECT_ID":"2021-066A","EPOCH":"2026-09-13T04:12:47.894976","MEAN_MOTION":15.49096932,"ECCENTRICITY":0.00049173,"INCLINATION":51.6307,"RA_OF_ASC_NODE":224.6171,"ARG_OF_PERICENTER":134.673,"MEAN_ANOMALY":225.4659,"EPHEMERIS_TYPE":0,"CLASSIFICATION_TYPE":"U","NORAD_CAT_ID":49044,"ELEMENT_SET_NO":999,"REV_AT_EPOCH":58614,"BSTAR":0.000096694874,"MEAN_MOTION_DOT":0.00004898,"MEAN_MOTION_DDOT":0},{"OBJECT_NAME":"FREGAT DEB","OBJECT_ID":"2011-037PF","EPOCH":"2026-09-13T06:03:40.018464","MEAN_MOTION":12.44391514,"ECCENTRICITY":0.09414283,"INCLINATION":51.6448,"RA_OF_ASC_NODE":96.6596,"ARG_OF_PERICENTER":118.065,"MEAN_ANOMALY":251.8613,"EPHEMERIS_TYPE":0,"CLASSIFICATION_TYPE":"U","NORAD_CAT_ID":49271,"ELEMENT_SET_NO":999,"REV_AT_EPOCH":23600,"BSTAR":0.022383201,"MEAN_MOTION_DOT":0.0001585,"MEAN_MOTION_DDOT":0},{"OBJECT_NAME":"CSS (WENTIAN)","OBJECT_ID":"2022-085A","EPOCH":"2026-09-13T04:13:37.142112","MEAN_MOTION":15.5987581,"ECCENTRICITY":0.00026461,"INCLINATION":41.468,"RA_OF_ASC_NODE":147.8011,"ARG_OF_PERICENTER":275.2341,"MEAN_ANOMALY":84.8195,"EPHEMERIS_TYPE":0,"CLASSIFICATION_TYPE":"U","NORAD_CAT_ID":53239,"ELEMENT_SET_NO":999,"REV_AT_EPOCH":28823,"BSTAR":0.00021565884,"MEAN_MOTION_DOT":0.00017557,"MEAN_MOTION_DDOT":0},{"OBJECT_NAME":"CSS (MENGTIAN)","OBJECT_ID":"2022-143A","EPOCH":"2026-09-13T04:13:37.142112","MEAN_MOTION":15.5987581,"ECCENTRICITY":0.00026461,"INCLINATION":41.468,"RA_OF_ASC_NODE":147.8011,"ARG_OF_PERICENTER":275.2341,"MEAN_ANOMALY":84.8195,"EPHEMERIS_TYPE":0,"CLASSIFICATION_TYPE":"U","NORAD_CAT_ID":54216,"ELEMENT_SET_NO":999,"REV_AT_EPOCH":30773,"BSTAR":0.00021565884,"MEAN_MOTION_DOT":0.00017557,"MEAN_MOTION_DDOT":0},{"OBJECT_NAME":"HRC MONOBLOCK CAMERA","OBJECT_ID":"1998-067XR","EPOCH":"2026-09-13T04:34:06.373056","MEAN_MOTION":15.93621923,"ECCENTRICITY":0.00047726,"INCLINATION":51.6155,"RA_OF_ASC_NODE":181.6489,"ARG_OF_PERICENTER":130.6642,"MEAN_ANOMALY":229.4781,"EPHEMERIS_TYPE":0,"CLASSIFICATION_TYPE":"U","NORAD_CAT_ID":66052,"ELEMENT_SET_NO":999,"REV_AT_EPOCH":5193,"BSTAR":0.00053874948,"MEAN_MOTION_DOT":0.0019662,"MEAN_MOTION_DDOT":0.000025893655},{"OBJECT_NAME":"SZ-21 MODULE","OBJECT_ID":"2025-246C","EPOCH":"2026-09-12T23:41:48.652224","MEAN_MOTION":15.8501811,"ECCENTRICITY":0.00120766,"INCLINATION":41.4696,"RA_OF_ASC_NODE":117.2166,"ARG_OF_PERICENTER":286.9643,"MEAN_ANOMALY":72.988,"EPHEMERIS_TYPE":0,"CLASSIFICATION_TYPE":"U","NORAD_CAT_ID":66515,"ELEMENT_SET_NO":999,"REV_AT_EPOCH":4763,"BSTAR":0.00027002912,"MEAN_MOTION_DOT":0.00066046,"MEAN_MOTION_DDOT":0},{"OBJECT_NAME":"DUPLEX","OBJECT_ID":"1998-067XS","EPOCH":"2026-09-13T02:59:06.565920","MEAN_MOTION":15.69404711,"ECCENTRICITY":0.00042884,"INCLINATION":51.6254,"RA_OF_ASC_NODE":203.2146,"ARG_OF_PERICENTER":131.1936,"MEAN_ANOMALY":228.9432,"EPHEMERIS_TYPE":0,"CLASSIFICATION_TYPE":"U","NORAD_CAT_ID":66906,"ELEMENT_SET_NO":999,"REV_AT_EPOCH":4443,"BSTAR":0.00037891537,"MEAN_MOTION_DOT":0.00045075,"MEAN_MOTION_DDOT":0},{"OBJECT_NAME":"KNACKSAT-2","OBJECT_ID":"1998-067XZ","EPOCH":"2026-09-13T06:25:19.348320","MEAN_MOTION":15.68591836,"ECCENTRICITY":0.00079381,"INCLINATION":51.6258,"RA_OF_ASC_NODE":208.6995,"ARG_OF_PERICENTER":155.7921,"MEAN_ANOMALY":204.345,"EPHEMERIS_TYPE":0,"CLASSIFICATION_TYPE":"U","NORAD_CAT_ID":67683,"ELEMENT_SET_NO":999,"REV_AT_EPOCH":3406,"BSTAR":0.00048949399,"MEAN_MOTION_DOT":0.00056607,"MEAN_MOTION_DDOT":0},{"OBJECT_NAME":"GXIBA-1","OBJECT_ID":"1998-067YB","EPOCH":"2026-09-13T03:02:51.894528","MEAN_MOTION":15.7239543,"ECCENTRICITY":0.00086523,"INCLINATION":51.6222,"RA_OF_ASC_NODE":206.9764,"ARG_OF_PERICENTER":152.3717,"MEAN_ANOMALY":207.7743,"EPHEMERIS_TYPE":0,"CLASSIFICATION_TYPE":"U","NORAD_CAT_ID":67685,"ELEMENT_SET_NO":999,"REV_AT_EPOCH":3407,"BSTAR":0.00054365177,"MEAN_MOTION_DOT":0.00074033,"MEAN_MOTION_DDOT":0},{"OBJECT_NAME":"UITMSAT-2","OBJECT_ID":"1998-067YC","EPOCH":"2026-09-13T05:53:21.219936","MEAN_MOTION":15.83276411,"ECCENTRICITY":0.00078746,"INCLINATION":51.6229,"RA_OF_ASC_NODE":200.962,"ARG_OF_PERICENTER":130.4281,"MEAN_ANOMALY":229.741,"EPHEMERIS_TYPE":0,"CLASSIFICATION_TYPE":"U","NORAD_CAT_ID":67686,"ELEMENT_SET_NO":999,"REV_AT_EPOCH":3416,"BSTAR":0.00078248386,"MEAN_MOTION_DOT":0.00176238,"MEAN_MOTION_DDOT":0},{"OBJECT_NAME":"LEOPARD","OBJECT_ID":"1998-067YD","EPOCH":"2026-09-13T05:41:46.207104","MEAN_MOTION":15.73484711,"ECCENTRICITY":0.00081762,"INCLINATION":51.6252,"RA_OF_ASC_NODE":207.002,"ARG_OF_PERICENTER":131.9523,"MEAN_ANOMALY":228.2174,"EPHEMERIS_TYPE":0,"CLASSIFICATION_TYPE":"U","NORAD_CAT_ID":67687,"ELEMENT_SET_NO":999,"REV_AT_EPOCH":3400,"BSTAR":0.00087525034,"MEAN_MOTION_DOT":0.00126031,"MEAN_MOTION_DDOT":0},{"OBJECT_NAME":"HMU-SAT2","OBJECT_ID":"1998-067YE","EPOCH":"2026-09-13T05:08:14.090208","MEAN_MOTION":15.77518798,"ECCENTRICITY":0.0007846,"INCLINATION":51.6248,"RA_OF_ASC_NODE":203.807,"ARG_OF_PERICENTER":127.549,"MEAN_ANOMALY":232.6224,"EPHEMERIS_TYPE":0,"CLASSIFICATION_TYPE":"U","NORAD_CAT_ID":67688,"ELEMENT_SET_NO":999,"REV_AT_EPOCH":3404,"BSTAR":0.00069207235,"MEAN_MOTION_DOT":0.00118705,"MEAN_MOTION_DDOT":0},{"OBJECT_NAME":"CREW DRAGON 12","OBJECT_ID":"2026-031A","EPOCH":"2026-09-13T04:12:47.894976","MEAN_MOTION":15.49096932,"ECCENTRICITY":0.00049173,"INCLINATION":51.6307,"RA_OF_ASC_NODE":224.6171,"ARG_OF_PERICENTER":134.673,"MEAN_ANOMALY":225.4659,"EPHEMERIS_TYPE":0,"CLASSIFICATION_TYPE":"U","NORAD_CAT_ID":67796,"ELEMENT_SET_NO":999,"REV_AT_EPOCH":58633,"BSTAR":0.000096694874,"MEAN_MOTION_DOT":0.00004898,"MEAN_MOTION_DDOT":0},{"OBJECT_NAME":"CYGNUS NG-24","OBJECT_ID":"2026-079A","EPOCH":"2026-09-13T04:12:47.894976","MEAN_MOTION":15.49096932,"ECCENTRICITY":0.00049173,"INCLINATION":51.6307,"RA_OF_ASC_NODE":224.6171,"ARG_OF_PERICENTER":134.673,"MEAN_ANOMALY":225.4659,"EPHEMERIS_TYPE":0,"CLASSIFICATION_TYPE":"U","NORAD_CAT_ID":68689,"ELEMENT_SET_NO":999,"REV_AT_EPOCH":58645,"BSTAR":0.000096694874,"MEAN_MOTION_DOT":0.00004898,"MEAN_MOTION_DDOT":0},{"OBJECT_NAME":"PROGRESS-MS 34","OBJECT_ID":"2026-093A","EPOCH":"2026-09-13T04:12:47.894976","MEAN_MOTION":15.49096932,"ECCENTRICITY":0.00049173,"INCLINATION":51.6307,"RA_OF_ASC_NODE":224.6171,"ARG_OF_PERICENTER":134.673,"MEAN_ANOMALY":225.4659,"EPHEMERIS_TYPE":0,"CLASSIFICATION_TYPE":"U","NORAD_CAT_ID":68837,"ELEMENT_SET_NO":999,"REV_AT_EPOCH":58649,"BSTAR":0.000096694874,"MEAN_MOTION_DOT":0.00004898,"MEAN_MOTION_DDOT":0},{"OBJECT_NAME":"TIANZHOU-10","OBJECT_ID":"2026-102A","EPOCH":"2026-09-13T04:13:37.142112","MEAN_MOTION":15.5987581,"ECCENTRICITY":0.00026461,"INCLINATION":41.468,"RA_OF_ASC_NODE":147.8011,"ARG_OF_PERICENTER":275.2341,"MEAN_ANOMALY":84.8195,"EPHEMERIS_TYPE":0,"CLASSIFICATION_TYPE":"U","NORAD_CAT_ID":69049,"ELEMENT_SET_NO":999,"REV_AT_EPOCH":30770,"BSTAR":0.00021565884,"MEAN_MOTION_DOT":0.00017557,"MEAN_MOTION_DDOT":0},{"OBJECT_NAME":"SHENZHOU-23 (SZ-23)","OBJECT_ID":"2026-113A","EPOCH":"2026-09-13T04:13:37.142112","MEAN_MOTION":15.5987581,"ECCENTRICITY":0.00026461,"INCLINATION":41.468,"RA_OF_ASC_NODE":147.8011,"ARG_OF_PERICENTER":275.2341,"MEAN_ANOMALY":84.8195,"EPHEMERIS_TYPE":0,"CLASSIFICATION_TYPE":"U","NORAD_CAT_ID":69180,"ELEMENT_SET_NO":999,"REV_AT_EPOCH":30755,"BSTAR":0.00021565884,"MEAN_MOTION_DOT":0.00017557,"MEAN_MOTION_DDOT":0},{"OBJECT_NAME":"SOYUZ-MS 29","OBJECT_ID":"2026-162A","EPOCH":"2026-09-13T04:12:47.894976","MEAN_MOTION":15.49096932,"ECCENTRICITY":0.00049173,"INCLINATION":51.6307,"RA_OF_ASC_NODE":224.6171,"ARG_OF_PERICENTER":134.673,"MEAN_ANOMALY":225.4659,"EPHEMERIS_TYPE":0,"CLASSIFICATION_TYPE":"U","NORAD_CAT_ID":100057,"ELEMENT_SET_NO":999,"REV_AT_EPOCH":58638,"BSTAR":0.000096694874,"MEAN_MOTION_DOT":0.00004898,"MEAN_MOTION_DDOT":0}]